When you browse on this site, cookies collect data to enhance your experience and personalize the content and advertising you see.
Visit our Privacy Policy to learn more. By continuing to use the site, you agree to this use of cookies and data.
  • In Romania
  • List of Countries
  • For 7 days
  • Water Temperature
  • Satellite Maps
  • Weather Map
  • Weather Widgets
  • user-avatar
    Login

    Hourly Weather Arona

    Today, 25 April, Thursday

    Time Temperature Precipitation Wind Pressure Humidity
    00:00 +11°C° 0.5 mm 0 mps 735 mmHg 91%
    01:00 +11°C° 0.5 mm 0 mps 735 mmHg 91%
    02:00 +11°C° 0.1 mm 0 mps 735 mmHg 91%
    03:00 +10°C° 0.1 mm 0 mps 735 mmHg 92%
    04:00 +10°C° 0.1 mm 0 mps 735 mmHg 92%
    05:00 +11°C° 0 mm 0 mps 735 mmHg 91%
    06:00 +11°C° 0 mm 0 mps 735 mmHg 90%
    07:00 +11°C° 0 mm 0 mps 735 mmHg 89%
    08:00 +14°C° 0 mm 1 mps 735 mmHg 82%
    09:00 +15°C° 0 mm 1 mps 735 mmHg 75%
    10:00 +16°C° 0 mm 1 mps 735 mmHg 68%
    11:00 +18°C° 0.1 mm 1 mps 735 mmHg 65%
    12:00 +18°C° 0.1 mm 1 mps 735 mmHg 62%
    13:00 +17°C° 0.1 mm 2 mps 734 mmHg 59%
    14:00 +18°C° 0.2 mm 1 mps 734 mmHg 62%
    15:00 +18°C° 0.2 mm 1 mps 734 mmHg 66%
    16:00 +18°C° 0.2 mm 1 mps 734 mmHg 70%
    17:00 +16°C° 0.6 mm 1 mps 734 mmHg 74%
    18:00 +15°C° 0.6 mm 1 mps 734 mmHg 79%
    19:00 +15°C° 0.6 mm 1 mps 734 mmHg 84%
    20:00 +14°C° 1 mm 1 mps 734 mmHg 86%
    21:00 +14°C° 1 mm 1 mps 734 mmHg 87%
    22:00 +14°C° 1 mm 1 mps 734 mmHg 89%
    23:00 +14°C° 1.5 mm 1 mps 734 mmHg 91%

    Tomorrow, 26 April, Friday

    Time Temperature Precipitation Wind Pressure Humidity
    00:00 +14°C° 1.5 mm 1 mps 733 mmHg 92%
    01:00 +13°C° 1.5 mm 2 mps 733 mmHg 94%
    02:00 +13°C° 1.9 mm 2 mps 733 mmHg 94%
    03:00 +12°C° 1.9 mm 3 mps 732 mmHg 94%
    04:00 +12°C° 1.9 mm 3 mps 732 mmHg 94%
    05:00 +12°C° 2.7 mm 3 mps 732 mmHg 95%
    06:00 +12°C° 2.7 mm 4 mps 731 mmHg 95%
    07:00 +12°C° 2.7 mm 4 mps 731 mmHg 95%
    08:00 +12°C° 1.7 mm 3 mps 732 mmHg 93%
    09:00 +12°C° 1.7 mm 3 mps 732 mmHg 91%
    10:00 +13°C° 1.7 mm 2 mps 732 mmHg 88%
    11:00 +14°C° 1.8 mm 2 mps 733 mmHg 81%
    12:00 +16°C° 1.8 mm 2 mps 733 mmHg 74%
    13:00 +17°C° 1.8 mm 2 mps 733 mmHg 67%
    14:00 +16°C° 2.2 mm 2 mps 733 mmHg 69%
    15:00 +13°C° 2.2 mm 3 mps 733 mmHg 72%
    16:00 +12°C° 2.2 mm 4 mps 733 mmHg 74%
    17:00 +12°C° 0.7 mm 4 mps 734 mmHg 73%
    18:00 +11°C° 0.7 mm 3 mps 734 mmHg 72%
    19:00 +10°C° 0.7 mm 3 mps 734 mmHg 70%
    20:00 +10°C° 0 mm 3 mps 735 mmHg 70%
    21:00 +9°C° 0 mm 3 mps 736 mmHg 70%
    22:00 +9°C° 0 mm 3 mps 736 mmHg 70%
    23:00 +8°C° 0 mm 3 mps 737 mmHg 69%

    Day after tomorrow, 27 April, Saturday

    Time Temperature Precipitation Wind Pressure Humidity
    00:00 +8°C° 0 mm 3 mps 737 mmHg 68%
    01:00 +7°C° 0 mm 3 mps 737 mmHg 67%
    02:00 +7°C° 0 mm 3 mps 737 mmHg 65%
    03:00 +7°C° 0 mm 3 mps 737 mmHg 64%
    04:00 +7°C° 0 mm 3 mps 737 mmHg 63%
    05:00 +7°C° 0 mm 2 mps 737 mmHg 61%
    06:00 +8°C° 0 mm 2 mps 737 mmHg 59%
    07:00 +9°C° 0 mm 2 mps 737 mmHg 57%
    08:00 +13°C° 0 mm 1 mps 737 mmHg 51%
    09:00 +15°C° 0 mm 1 mps 737 mmHg 45%
    10:00 +17°C° 0 mm 0 mps 736 mmHg 39%
    11:00 +20°C° 0 mm 1 mps 736 mmHg 38%
    12:00 +20°C° 0 mm 1 mps 735 mmHg 37%
    13:00 +20°C° 0 mm 2 mps 735 mmHg 36%
    14:00 +20°C° 0 mm 2 mps 735 mmHg 38%
    15:00 +20°C° 0 mm 2 mps 734 mmHg 40%
    16:00 +19°C° 0 mm 2 mps 734 mmHg 42%
    17:00 +18°C° 0.4 mm 2 mps 734 mmHg 49%
    18:00 +17°C° 0.4 mm 2 mps 734 mmHg 56%
    19:00 +15°C° 0.4 mm 1 mps 734 mmHg 63%
    20:00 +14°C° 0.4 mm 1 mps 734 mmHg 66%
    21:00 +13°C° 0.4 mm 1 mps 735 mmHg 69%
    22:00 +12°C° 0.4 mm 1 mps 735 mmHg 71%
    23:00 +11°C° 0.1 mm 1 mps 735 mmHg 71%

    28 April, Sunday

    Time Temperature Precipitation Wind Pressure Humidity
    00:00 +9°C° 0.1 mm 2 mps 735 mmHg 71%
    01:00 +9°C° 0.1 mm 2 mps 735 mmHg 71%
    02:00 +8°C° 0 mm 2 mps 735 mmHg 69%
    03:00 +8°C° 0 mm 2 mps 735 mmHg 68%
    04:00 +7°C° 0 mm 2 mps 734 mmHg 66%
    05:00 +8°C° 0 mm 2 mps 735 mmHg 64%
    06:00 +9°C° 0 mm 2 mps 735 mmHg 61%
    07:00 +9°C° 0 mm 2 mps 735 mmHg 58%
    08:00 +12°C° 0 mm 2 mps 735 mmHg 51%
    09:00 +14°C° 0 mm 2 mps 735 mmHg 43%
    10:00 +16°C° 0 mm 2 mps 735 mmHg 36%
    11:00 +17°C° 0 mm 2 mps 735 mmHg 33%
    12:00 +18°C° 0 mm 2 mps 735 mmHg 31%
    13:00 +19°C° 0 mm 2 mps 735 mmHg 28%
    14:00 +19°C° 0 mm 2 mps 735 mmHg 31%
    15:00 +19°C° 0 mm 2 mps 735 mmHg 34%
    16:00 +18°C° 0 mm 2 mps 735 mmHg 37%
    17:00 +17°C° 0 mm 2 mps 736 mmHg 44%
    18:00 +16°C° 0 mm 1 mps 736 mmHg 51%
    19:00 +14°C° 0 mm 1 mps 736 mmHg 58%
    20:00 +13°C° 0 mm 1 mps 737 mmHg 60%
    21:00 +12°C° 0 mm 1 mps 737 mmHg 61%
    22:00 +11°C° 0 mm 1 mps 738 mmHg 63%
    23:00 +9°C° 0 mm 2 mps 738 mmHg 62%

    29 April, Monday

    Time Temperature Precipitation Wind Pressure Humidity
    00:00 +9°C° 0 mm 2 mps 738 mmHg 60%
    01:00 +8°C° 0 mm 2 mps 738 mmHg 59%
    02:00 +8°C° 0 mm 2 mps 738 mmHg 58%
    03:00 +8°C° 0 mm 2 mps 738 mmHg 57%
    04:00 +8°C° 0 mm 2 mps 737 mmHg 57%
    05:00 +8°C° 0 mm 2 mps 737 mmHg 56%
    06:00 +9°C° 0 mm 2 mps 737 mmHg 55%
    07:00 +11°C° 0 mm 1 mps 737 mmHg 54%
    08:00 +14°C° 0 mm 1 mps 736 mmHg 48%
    09:00 +16°C° 0 mm 1 mps 736 mmHg 43%
    10:00 +20°C° 0 mm 1 mps 736 mmHg 37%
    11:00 +21°C° 0 mm 1 mps 735 mmHg 35%
    12:00 +22°C° 0 mm 1 mps 735 mmHg 33%
    13:00 +23°C° 0 mm 1 mps 735 mmHg 31%
    14:00 +23°C° 0 mm 1 mps 734 mmHg 32%
    15:00 +23°C° 0 mm 1 mps 734 mmHg 33%
    16:00 +23°C° 0 mm 1 mps 734 mmHg 33%
    17:00 +20°C° 0 mm 2 mps 734 mmHg 39%
    18:00 +19°C° 0 mm 2 mps 733 mmHg 45%
    19:00 +17°C° 0 mm 2 mps 733 mmHg 51%
    20:00 +16°C° 0 mm 2 mps 734 mmHg 53%
    21:00 +14°C° 0 mm 2 mps 734 mmHg 56%
    22:00 +13°C° 0 mm 2 mps 734 mmHg 58%
    23:00 +13°C° 0 mm 2 mps 734 mmHg 58%

    30 April, Tuesday

    Time Temperature Precipitation Wind Pressure Humidity
    00:00 +12°C° 0 mm 2 mps 734 mmHg 59%
    01:00 +12°C° 0 mm 2 mps 734 mmHg 59%
    02:00 +12°C° 0 mm 2 mps 734 mmHg 60%
    03:00 +10°C° 0 mm 2 mps 734 mmHg 60%
    04:00 +10°C° 0 mm 2 mps 733 mmHg 60%
    05:00 +12°C° 0 mm 2 mps 733 mmHg 60%
    06:00 +13°C° 0 mm 1 mps 733 mmHg 59%
    07:00 +14°C° 0 mm 1 mps 733 mmHg 59%
    08:00 +16°C° 0 mm 1 mps 733 mmHg 53%
    09:00 +19°C° 0 mm 1 mps 733 mmHg 47%
    10:00 +21°C° 0 mm 1 mps 733 mmHg 42%
    11:00 +22°C° 0 mm 1 mps 733 mmHg 40%
    12:00 +21°C° 0 mm 2 mps 733 mmHg 39%
    13:00 +23°C° 0 mm 2 mps 733 mmHg 37%
    14:00 +23°C° 0 mm 2 mps 732 mmHg 37%
    15:00 +23°C° 0 mm 2 mps 732 mmHg 37%
    16:00 +23°C° 0 mm 2 mps 732 mmHg 37%
    17:00 +21°C° 0 mm 2 mps 732 mmHg 43%
    18:00 +20°C° 0 mm 1 mps 732 mmHg 48%
    19:00 +19°C° 0 mm 1 mps 732 mmHg 53%
    20:00 +18°C° 0 mm 1 mps 733 mmHg 56%
    21:00 +16°C° 0 mm 1 mps 733 mmHg 58%
    22:00 +15°C° 0 mm 1 mps 734 mmHg 60%
    23:00 +15°C° 0 mm 1 mps 733 mmHg 62%
    Show more